Theta_e
324 324 324 324 324 324 324 323 322 321 321 320 320 319 319 319 319 318 318 318 318 318 318 318 319 320 314 306 305 324 349 341 326 310 306 311 314 314 309 318 324 322 326 327 327 328 331
323 324 323 324 324 323 322 321 321 320 320 320 320 319 319 319 319 318 318 318 317 317 318 319 320 320 308 296 316 331 325 314 309 304 303 309 315 316 311 321 328 329 326 325 329 328 332
323 322 322 322 322 321 319 320 320 320 320 319 319 319 319 319 319 319 318 317 316 316 317 318 319 317 309 305 319 325 321 315 308 304 303 308 315 314 312 309 332 327 320 326 326 330 326
321 320 320 320 319 320 319 319 319 319 319 319 319 319 318 318 318 318 317 317 317 317 317 318 319 311 299 317 316 315 315 312 308 303 304 310 315 314 309 311 329 325 325 316 326 328 327
321 321 320 320 320 320 319 318 319 319 319 319 319 318 318 318 316 316 316 316 317 320 320 319 309 305 304 322 312 314 313 308 306 302 305 312 311 308 307 306 312 320 312 313 320 329 326
319 319 319 320 320 320 318 317 319 319 319 319 318 318 318 317 316 314 314 315 317 318 320 319 316 303 309 309 306 311 313 314 305 304 306 305 305 300 300 299 297 307 310 313 316 324 324
318 318 318 318 318 318 318 317 319 319 319 319 318 317 314 315 314 314 309 308 308 306 309 305 307 306 310 313 312 310 312 314 309 303 298 303 298 295 300 302 307 310 314 316 318 323 324
318 318 318 317 318 318 318 317 318 318 318 318 317 315 314 313 312 312 306 303 308 310 302 312 315 311 314 309 308 311 314 307 304 299 300 298 295 303 305 308 307 310 314 313 317 322 321
317 317 317 317 318 318 318 317 316 317 317 317 317 314 313 313 312 308 305 308 313 312 300 306 313 312 308 310 307 307 310 306 302 298 297 294 299 306 304 305 303 313 312 314 314 320 321
318 318 316 316 317 316 317 316 316 316 317 316 316 315 313 312 308 308 306 312 312 312 295 302 304 310 308 308 305 312 311 304 301 299 298 296 303 302 301 302 307 307 319 319 315 312 305
319 319 318 316 316 316 316 316 316 315 316 316 316 315 312 311 304 304 308 310 313 308 288 304 300 310 306 304 305 306 310 304 297 298 296 296 299 299 300 302 313 314 321 316 315 306 306
319 319 319 318 317 317 317 316 316 315 315 315 315 314 312 308 307 308 313 312 306 297 290 303 307 303 302 302 305 308 306 305 307 302 300 299 303 302 303 305 317 321 316 315 311 307 299
319 319 318 317 317 317 316 316 316 314 315 314 313 311 310 312 304 311 309 306 297 290 305 302 299 300 300 301 306 305 302 298 295 291 290 297 299 301 307 310 315 316 308 298 294 294 296
318 318 316 316 316 316 316 316 315 314 314 313 310 309 309 310 309 311 307 302 292 302 301 306 305 304 301 304 301 305 300 297 301 297 294 290 290 301 307 305 306 308 305 296 290 291 296
317 316 316 315 316 316 316 316 316 314 314 312 308 304 305 310 312 309 302 294 296 301 305 304 303 298 298 305 305 303 298 297 300 300 295 294 294 305 308 307 305 302 298 306 299 297 294
317 316 316 316 316 316 316 316 315 314 313 311 304 306 307 311 314 305 298 294 300 307 305 304 297 302 298 300 301 300 300 303 302 305 303 299 293 300 305 306 304 302 303 293 291 288 288
317 316 316 316 316 316 316 316 315 314 312 310 306 301 310 312 309 301 293 295 304 307 306 302 301 299 299 300 301 299 301 306 309 306 301 299 295 298 300 297 297 297 294 292 292 292 290
317 316 315 316 316 316 316 316 315 312 310 308 306 302 311 311 299 297 296 302 304 301 304 304 304 303 300 304 302 301 301 305 311 306 299 300 293 292 295 306 303 298 294 292 289 289 290
317 317 315 316 316 316 316 316 314 312 311 305 302 303 312 309 296 296 301 305 302 299 299 302 303 303 306 302 299 303 305 311 310 305 300 301 296 292 294 299 304 301 302 296 292 288 288
317 316 316 316 316 317 317 315 314 312 311 304 304 301 303 304 301 300 299 301 296 303 302 303 302 305 302 301 302 301 302 309 309 306 323 309 297 293 290 295 299 299 302 300 293 289 290
318 316 315 316 316 316 316 316 314 313 312 307 305 302 308 302 303 301 300 302 299 297 302 302 300 303 302 296 299 300 304 304 307 312 303 299 295 296 298 304 303 301 302 302 298 299 294
318 315 315 314 314 315 315 315 315 314 311 307 303 309 310 307 306 304 297 295 299 299 298 296 300 302 301 297 294 295 298 299 301 303 301 299 292 294 294 301 301 303 305 307 307 311 309
317 315 315 315 314 314 315 316 316 314 310 304 310 313 311 306 307 301 298 301 302 301 301 303 302 298 297 298 299 297 296 297 299 301 300 298 294 291 289 296 297 297 302 307 312 316 310
316 315 315 315 315 315 315 316 316 315 312 305 305 308 307 304 309 306 309 305 301 300 299 301 301 297 299 302 301 300 297 296 297 297 299 295 293 292 289 293 290 300 308 310 309 316 318
315 315 314 314 314 315 315 315 316 316 315 307 306 306 309 305 310 310 310 304 302 300 300 301 302 302 300 298 294 291 292 292 296 300 297 298 293 290 289 287 294 303 307 304 306 307 317
314 314 314 314 314 315 317 316 316 316 315 307 305 307 307 306 305 314 309 304 298 297 297 301 303 304 301 294 293 289 287 291 293 297 298 298 296 293 289 286 285 298 307 308 310 300 312
314 313 313 314 315 316 316 316 315 316 316 309 306 307 306 308 312 313 304 303 303 301 298 298 301 301 299 293 291 289 290 297 289 290 291 292 292 290 290 289 296 306 309 308 295 299 312
313 313 313 314 315 315 316 316 315 317 317 310 305 309 311 311 314 313 309 303 303 300 294 297 298 299 299 293 293 293 292 293 292 293 293 290 288 288 289 287 289 309 309 301 304 307 316
313 313 314 314 314 314 315 315 315 316 316 314 301 313 314 311 313 317 310 310 308 306 299 297 297 298 301 296 296 296 294 293 289 288 296 290 292 290 292 293 302 307 306 309 308 306 307
Wind_Speed
15 14 14 14 13 12 11 12 13 13 13 13 12 11 11 11 12 11 10 10 10 10 9 9 9 10 4 1 10 2 10 18 6 4 5 5 6 5 4 9 11 4 11 12 12 17 10
14 14 15 15 14 14 15 14 14 14 13 12 12 11 11 12 12 11 10 10 9 9 9 9 8 9 1 3 4 11 10 8 6 6 5 6 7 6 5 2 10 16 11 13 11 5 6
14 15 15 15 15 15 15 15 15 15 14 14 13 12 12 12 12 11 10 10 10 9 8 7 7 4 1 14 4 6 10 9 5 8 5 9 5 1 5 5 6 15 11 5 11 9 6
13 13 14 15 15 14 15 15 15 15 14 14 14 14 13 13 13 13 11 11 10 8 7 6 4 2 8 7 4 5 6 3 6 6 7 7 3 5 6 2 5 8 8 9 10 11 6
13 13 13 13 13 13 15 14 14 14 14 13 13 13 14 13 12 14 13 14 11 7 5 4 1 1 11 12 3 7 11 6 6 6 7 11 2 7 2 3 3 4 3 4 7 3 4
14 13 13 13 13 13 15 14 14 14 14 14 14 13 13 12 12 13 18 14 5 4 3 5 6 4 6 4 4 5 7 7 5 3 3 5 2 2 4 4 5 8 8 6 8 5 3
16 16 16 16 16 15 15 15 14 15 15 14 14 15 16 15 13 11 9 3 2 1 3 10 6 6 6 4 1 4 5 5 2 3 4 3 4 5 10 7 3 4 2 8 4 6 6
17 17 17 17 17 16 16 16 15 15 16 15 15 17 17 17 15 13 3 1 7 1 9 13 15 9 10 3 3 2 8 5 6 6 2 4 5 11 6 3 8 10 2 6 5 5 1
17 17 18 18 16 16 17 17 16 15 15 16 15 18 18 19 19 3 4 9 6 10 3 9 6 5 6 6 6 6 7 4 3 2 2 6 12 10 6 8 12 4 7 9 7 9 3
16 16 18 18 16 18 18 19 18 16 16 16 15 18 18 23 2 3 6 5 4 7 5 7 2 6 4 3 3 6 8 6 1 9 6 7 13 12 7 10 7 5 3 11 12 10 3
14 14 16 17 19 19 18 19 19 18 17 16 15 15 16 5 6 3 7 8 10 4 5 1 2 3 3 6 2 3 6 4 4 4 6 10 5 6 8 11 4 6 17 8 10 5 4
15 15 16 16 18 18 17 18 18 20 19 18 16 13 15 3 3 10 11 12 5 7 3 3 4 3 3 4 5 2 4 3 3 4 6 11 7 6 9 9 12 15 18 7 6 3 3
15 16 17 17 17 18 18 19 18 21 22 20 17 12 7 4 6 5 6 5 7 4 5 3 4 1 4 3 7 5 5 4 4 1 4 7 6 4 9 12 14 16 12 1 3 3 2
16 16 18 19 18 18 19 18 21 23 23 22 20 13 6 7 1 7 5 6 5 4 6 5 5 10 5 5 3 4 2 3 5 4 2 3 8 4 2 11 14 12 9 6 6 4 4
18 18 18 19 18 19 19 20 20 23 24 23 21 1 3 6 8 4 6 4 6 6 1 5 6 7 4 4 4 10 5 7 5 8 6 0 5 5 4 4 10 6 7 11 6 2 3
17 18 18 17 18 19 19 20 21 24 27 25 3 2 4 4 9 6 6 4 4 4 3 5 5 3 3 1 6 6 4 6 5 5 8 6 3 2 8 3 3 8 6 3 4 3 4
18 18 18 18 18 18 19 19 21 24 29 12 2 4 6 8 5 6 2 7 7 9 3 3 5 4 3 4 3 2 4 7 7 10 2 5 5 9 2 3 7 3 2 4 4 5 5
16 18 19 18 17 18 18 18 19 21 27 7 4 3 4 6 4 1 2 5 8 7 7 3 4 2 4 8 9 5 3 4 6 6 4 4 6 2 6 9 3 5 3 4 6 7 3
13 14 18 17 17 16 17 16 17 15 14 5 2 4 4 6 1 3 6 7 4 6 4 4 4 3 6 1 3 4 4 4 9 4 2 5 4 4 9 9 10 8 3 1 2 3 3
14 14 16 17 18 18 17 16 16 14 8 2 2 4 6 4 1 3 5 6 2 4 3 3 3 8 4 5 6 1 2 1 1 4 4 3 5 6 6 6 3 4 6 5 3 3 2
13 17 16 16 17 18 18 16 16 17 15 3 2 4 4 4 7 6 3 7 3 3 6 9 7 6 4 4 4 5 5 6 6 8 7 6 4 2 2 2 3 3 7 10 7 5 5
11 16 15 17 18 18 19 18 15 18 16 2 1 2 5 4 5 6 1 4 8 3 6 4 12 11 10 6 2 2 3 3 4 5 5 5 1 2 6 6 6 8 16 19 12 12 12
10 14 14 15 17 18 18 16 15 15 11 3 4 4 4 6 7 5 4 5 1 7 10 7 12 8 8 4 4 5 3 2 6 0 2 4 4 4 3 6 3 10 8 17 13 12 3
11 12 14 15 16 16 16 13 13 11 7 1 4 2 2 5 2 3 7 8 11 5 8 2 9 5 4 5 4 5 7 3 4 1 2 3 3 3 1 6 6 5 5 12 16 9 9
12 12 13 15 16 15 15 15 11 10 6 1 3 1 1 3 3 7 16 4 5 5 5 7 2 4 1 7 4 5 7 7 4 7 9 4 4 4 4 1 1 1 4 3 6 2 3
12 12 14 15 17 16 14 13 10 10 7 1 4 3 2 0 5 5 7 2 4 3 4 2 2 1 5 4 4 2 3 5 2 5 6 8 7 6 2 3 2 1 4 5 4 2 5
13 14 14 15 16 16 16 14 12 10 7 1 5 1 1 2 6 4 2 2 2 5 4 2 4 6 5 3 2 2 1 3 2 3 3 4 4 4 2 2 1 3 8 4 5 6 5
13 14 15 15 14 15 15 12 11 9 7 2 6 5 1 2 7 4 3 4 5 5 5 5 6 7 5 6 2 2 3 2 4 1 6 3 4 1 3 4 1 4 3 7 5 7 5
13 14 15 14 13 14 13 11 10 8 6 2 4 3 0 3 7 3 3 2 7 8 7 5 8 4 4 4 1 1 3 3 3 1 4 3 6 5 5 6 3 4 5 5 4 3 2
Wind_Direction
11 12 14 11 10 8 7 8 2 353 350 348 344 338 332 333 336 332 328 323 321 320 317 319 322 325 352 310 250 158 104 157 148 165 208 196 182 181 208 158 145 173 223 220 216 191 242
11 14 14 12 12 10 9 2 358 353 349 345 341 337 336 335 335 334 330 325 318 315 314 317 320 322 342 280 240 138 125 135 161 176 211 198 214 180 294 197 175 178 164 189 206 222 280
11 17 11 9 10 2 3 356 355 352 349 344 341 341 340 336 334 332 325 317 311 306 305 312 319 293 268 237 13 125 151 179 187 183 209 220 256 231 331 305 103 127 119 146 227 233 222
11 13 11 9 6 3 2 352 351 350 347 343 343 343 341 337 334 327 320 309 301 300 289 284 296 314 247 254 218 221 199 220 190 230 214 248 210 273 231 162 117 132 111 189 195 202 197
10 8 8 4 0 355 0 351 348 349 347 343 341 338 336 334 335 327 314 303 288 285 255 253 250 139 270 308 180 224 158 202 187 233 257 264 245 205 324 79 67 107 153 265 262 237 146
14 12 7 4 1 358 357 351 346 348 346 343 338 333 332 332 326 325 313 291 261 313 203 205 259 318 279 257 235 214 176 198 183 197 330 222 196 138 59 95 214 172 176 217 202 12 256
13 12 8 5 2 358 355 351 345 345 344 342 338 340 338 336 337 333 350 10 25 24 220 207 202 230 270 239 358 213 196 155 139 108 191 263 93 208 216 211 64 286 11 152 127 359 225
11 8 6 4 1 354 352 351 343 342 341 339 338 342 335 329 328 323 315 206 222 147 310 222 246 250 265 236 138 232 122 150 142 196 197 17 214 233 222 240 245 272 151 71 91 235 212
9 6 3 1 357 350 346 349 345 340 338 336 338 340 333 324 316 297 206 229 231 46 312 297 193 201 232 139 176 221 132 175 154 170 207 178 235 236 219 247 257 158 150 177 178 117 50
6 0 0 359 354 351 348 348 344 338 332 331 330 337 336 325 343 333 259 298 276 167 43 280 242 265 254 129 275 185 182 146 256 196 221 228 257 235 230 231 222 99 287 153 132 139 161
356 353 354 356 354 353 346 343 343 336 326 323 320 328 331 336 299 277 248 346 298 74 17 307 216 209 188 148 147 265 162 94 238 236 99 245 246 202 233 225 136 149 146 143 139 77 101
349 350 350 348 347 345 338 340 339 334 322 314 311 313 329 91 218 247 316 306 38 48 305 303 153 178 75 344 317 242 156 177 206 260 265 248 268 174 218 208 123 129 95 90 76 107 105
349 349 349 350 344 341 335 340 339 333 319 313 306 289 295 289 228 356 326 29 50 97 308 303 184 89 87 347 351 25 199 175 179 40 312 320 278 264 216 87 104 109 94 5 5 6 227
349 348 352 350 343 340 338 337 342 332 321 317 309 294 237 227 272 2 28 46 66 253 234 299 74 65 52 348 342 326 283 260 248 130 351 270 330 162 219 146 154 143 154 172 174 176 163
350 350 349 348 341 340 340 336 328 328 328 326 317 81 243 251 193 163 67 42 210 223 205 110 41 66 346 337 42 19 288 224 239 169 191 5 274 326 314 164 132 124 180 182 118 336 79
345 346 343 340 341 339 340 339 336 334 332 334 346 329 260 145 149 74 68 238 249 220 207 81 117 161 5 342 35 9 319 306 276 241 174 247 350 303 293 103 76 138 178 69 2 153 218
344 344 343 338 339 339 342 343 341 341 335 344 9 32 257 123 91 54 152 236 283 277 149 124 186 150 186 126 160 239 277 291 331 335 341 121 97 297 22 149 181 40 32 72 126 143 169
340 343 342 336 337 339 344 346 345 346 339 39 341 26 303 96 60 204 208 219 279 15 9 66 100 127 145 167 192 189 280 229 350 338 6 320 129 267 246 313 236 111 30 99 123 268 184
333 333 339 332 332 337 345 346 343 349 19 332 4 269 312 96 197 262 294 291 235 46 19 27 58 297 115 256 30 2 291 351 329 359 21 304 49 16 347 355 5 40 7 85 209 78 219
330 332 331 329 333 340 348 348 338 338 349 84 17 7 319 26 146 235 296 298 248 35 49 89 53 60 73 79 33 74 324 252 123 317 53 85 73 141 170 202 179 332 338 41 105 78 202
326 330 330 330 335 343 347 345 338 332 331 147 164 252 210 280 293 243 190 242 129 48 359 19 4 36 126 75 49 8 356 358 356 2 12 82 81 331 274 252 206 241 28 23 21 280 145
320 329 328 333 337 340 346 348 341 335 341 68 57 39 340 272 272 300 193 346 120 157 99 20 85 58 59 87 133 354 358 39 253 359 30 4 351 87 1 359 321 70 47 49 48 58 71
316 325 323 326 333 336 343 345 343 348 351 19 312 337 104 277 325 29 268 147 131 117 21 111 116 82 29 324 253 252 216 263 249 169 74 72 97 53 303 318 345 41 359 58 53 29 68
322 319 322 325 328 333 337 342 343 356 33 212 265 339 32 280 309 324 318 130 109 110 122 87 79 89 246 332 328 356 352 346 299 228 153 109 93 89 277 4 57 219 312 92 72 61 82
316 316 320 322 325 326 332 336 342 335 351 255 289 329 331 283 313 309 344 235 105 89 100 109 81 199 144 40 48 21 345 11 355 33 26 49 104 59 105 92 304 62 339 25 123 346 91
314 314 316 320 321 318 320 326 333 321 330 278 252 204 284 106 257 306 315 291 150 145 60 87 273 294 68 78 66 136 226 190 347 349 28 49 68 106 74 107 140 271 307 341 96 40 191
313 313 314 319 314 315 317 319 324 317 322 282 274 273 250 259 277 342 1 317 97 95 103 14 348 353 64 66 34 133 305 157 91 57 351 17 12 94 76 112 260 320 303 326 93 221 170
309 311 312 313 308 312 310 319 320 313 316 339 267 218 216 272 282 299 38 78 27 56 118 258 48 346 35 45 70 288 97 257 76 283 144 136 118 163 80 97 229 338 354 105 227 307 187
309 314 310 307 312 308 308 312 310 306 303 323 282 332 100 204 249 279 301 97 128 176 132 13 162 198 174 81 6 43 4 34 134 264 336 35 166 176 154 208 214 302 136 201 192 219 306